Milton, FL

10:04 PM CST on December 08, 2016 (GMT -0600)
Whiting Field Naval Air Station (North)

Weather History for KNSE - January, 2014

Change the Weather History Date:

Wednesday, January 29, 2014

  Actual Average Record
Temperature  
Mean Temperature 24 °F -  
Max Temperature 28 °F 59 °F 77 °F (2013)
Min Temperature 19 °F 42 °F 19 °F (2014)
Degree Days  
Heating Degree Days 40    
Moisture  
Dew Point 15 °F    
Average Humidity 69    
Maximum Humidity 81    
Minimum Humidity 60    
Precipitation  
Precipitation 0.00 in - - ()
Sea Level Pressure  
Sea Level Pressure 30.31 in    
Wind  
Wind Speed 8 mph (North)    
Max Wind Speed 12 mph    
Max Gust Speed 21 mph    
Visibility 10 miles    
Events      
Averages and records for this station are not official NWS values.
T = Trace of Precipitation, MM = Missing Value Source: NWS Daily Summary

Daily Weather History Graph

Daily Weather History Graph

Search for Another Location

Airport or City:

Trip Planner

Search our weather history database for the weather conditions in past years. The results will help you decide how hot, cold, wet, or windy it might be!

Date:

Astronomy

Jan. 29, 2014 Rise Set
Actual Time 6:41 AM CST 5:21 PM CST
Civil Twilight 6:15 AM CST 5:46 PM CST
Nautical Twilight 5:46 AM CST 6:15 PM CST
Astronomical Twilight 5:18 AM CST 6:44 PM CST
Moon 5:16 AM CST (1/29) 4:20 PM CST (1/29)
Length of Visible Light 11h 31m
Length of Day
10h 40m
Waning Crescent, 2% of the Moon is Illuminated
Jan 29
Waning Crescent
Jan 30
New
Feb 6
First Quarter
Feb 14
Full
Feb 22
Last Quarter

Hourly Weather History & Observations

Time (CST) Temp. Windchill Dew Point Humidity Pressure Visibility Wind Dir Wind Speed Gust Speed Precip Events Conditions
12:56 AM 24.1 °F 13.7 °F 19.0 °F 81% 30.27 in 10.0 mi NNW 10.4 mph 20.7 mph N/A   Overcast
1:56 AM 24.1 °F 14.4 °F 18.0 °F 77% 30.23 in 10.0 mi North 9.2 mph - N/A   Unknown
2:56 AM 23.0 °F 13.1 °F 16.0 °F 74% 30.25 in 10.0 mi North 9.2 mph 19.6 mph N/A   Unknown
3:56 AM 21.9 °F 11.7 °F 15.1 °F 75% 30.26 in 10.0 mi North 9.2 mph 19.6 mph N/A   Unknown
4:56 AM 21.9 °F 10.4 °F 14.0 °F 72% 30.24 in 10.0 mi North 11.5 mph 20.7 mph N/A   Unknown
5:56 AM 21.0 °F 11.4 °F 14.0 °F 74% 30.30 in 10.0 mi North 8.1 mph - N/A   Unknown
6:56 AM 21.0 °F 13.4 °F 14.0 °F 74% 30.33 in 10.0 mi Variable 5.8 mph - N/A   Unknown
7:56 AM 21.0 °F 11.4 °F 12.9 °F 71% 30.33 in 10.0 mi North 8.1 mph - N/A   Clear
8:56 AM 21.9 °F 13.4 °F 14.0 °F 72% 30.35 in 10.0 mi Variable 6.9 mph - N/A   Clear
9:56 AM 21.9 °F 11.7 °F 12.9 °F 68% 30.38 in 10.0 mi North 9.2 mph - N/A   Unknown
10:56 AM 23.0 °F 13.9 °F 14.0 °F 68% 30.37 in 10.0 mi North 8.1 mph - N/A   Unknown
11:56 AM 24.1 °F 16.0 °F 14.0 °F 65% 30.36 in 10.0 mi Variable 6.9 mph - N/A   Clear
12:56 PM 25.0 °F 16.3 °F 12.9 °F 60% 30.33 in 10.0 mi North 8.1 mph - N/A   Clear
1:56 PM 26.1 °F 18.4 °F 15.1 °F 63% 30.32 in 10.0 mi North 6.9 mph - N/A   Clear
2:56 PM 27.0 °F 19.5 °F 15.1 °F 61% 30.31 in 10.0 mi North 6.9 mph - N/A   Unknown
3:56 PM 28.9 °F 21.9 °F 17.1 °F 61% 30.29 in 10.0 mi Variable 6.9 mph - N/A   Clear
4:56 PM 28.0 °F 22.8 °F 18.0 °F 66% 30.30 in 10.0 mi NNE 4.6 mph - N/A   Unknown
5:56 PM 25.0 °F 20.7 °F 19.0 °F 78% 30.31 in 10.0 mi NNW 3.5 mph - N/A   Clear
6:56 PM 25.0 °F 18.1 °F 14.0 °F 63% 30.31 in 10.0 mi North 5.8 mph - N/A   Clear
7:56 PM 24.1 °F 18.2 °F 12.9 °F 62% 30.32 in 10.0 mi North 4.6 mph - N/A   Clear
8:56 PM 23.0 °F 17.0 °F 12.9 °F 65% 30.35 in 10.0 mi North 4.6 mph - N/A   Unknown
9:56 PM 21.9 °F 17.2 °F 12.0 °F 66% 30.35 in 10.0 mi North 3.5 mph - N/A   Unknown
10:56 PM 21.0 °F 14.6 °F 10.9 °F 65% 30.33 in 10.0 mi North 4.6 mph - N/A   Unknown
11:56 PM 19.9 °F 13.4 °F 10.9 °F 68% 30.31 in 10.0 mi North 4.6 mph - N/A   Unknown